N805AB KPVD-

Flight info

Callsign N805AB
Flight time N/A
Altitude VFR/045
Route VFR NORTH
Aircraft P180/L-DOV/C

Departure

Time 2026-05-04 00:20
Airport Rhode Island T. F. Green International Airport (KPVD)

Arrival

Time N/A
Airport -
Time Latitude Longitude Altitude Speed Heading
2026-05-04 00:05 41.73204 -71.42729 56 ft 0 kts 358°
2026-05-04 00:09 41.73206 -71.42727 56 ft 3 kts 20°
2026-05-04 00:09 41.73183 -71.42683 54 ft 10 kts 157°
2026-05-04 00:10 41.73093 -71.42644 54 ft 12 kts 172°
2026-05-04 00:10 41.73050 -71.42608 51 ft 10 kts 28°
2026-05-04 00:10 41.73097 -71.42545 53 ft 14 kts 78°
2026-05-04 00:10 41.73124 -71.42381 49 ft 22 kts 79°
2026-05-04 00:11 41.73099 -71.42249 48 ft 10 kts 155°
2026-05-04 00:11 41.73022 -71.42295 47 ft 11 kts 212°
2026-05-04 00:11 41.72946 -71.42360 48 ft 9 kts 213°
2026-05-04 00:11 41.72890 -71.42408 46 ft 13 kts 212°
2026-05-04 00:12 41.72801 -71.42485 45 ft 18 kts 212°
2026-05-04 00:12 41.72685 -71.42581 47 ft 21 kts 211°
2026-05-04 00:12 41.72552 -71.42689 47 ft 19 kts 211°
2026-05-04 00:12 41.72465 -71.42686 49 ft 15 kts 135°
2026-05-04 00:13 41.72397 -71.42562 51 ft 19 kts 126°
2026-05-04 00:13 41.72282 -71.42427 51 ft 25 kts 142°
2026-05-04 00:13 41.72139 -71.42278 49 ft 28 kts 141°
2026-05-04 00:13 41.71972 -71.42099 43 ft 33 kts 141°
2026-05-04 00:14 41.71810 -71.41925 37 ft 18 kts 129°
2026-05-04 00:14 41.71808 -71.41898 37 ft 0 kts 61°
2026-05-04 00:19 41.71846 -71.41881 37 ft 16 kts 14°
2026-05-04 00:20 41.72076 -71.42067 44 ft 88 kts 321°
2026-05-04 00:20 41.72720 -71.42735 186 ft 133 kts 321°
2026-05-04 00:20 41.73534 -71.43568 569 ft 159 kts 321°
2026-05-04 00:20 41.74207 -71.44236 989 ft 168 kts 321°
2026-05-04 00:21 41.75260 -71.44834 1815 ft 168 kts 349°
2026-05-04 00:21 41.76491 -71.44608 2199 ft 195 kts 10°
2026-05-04 00:21 41.77871 -71.44068 2346 ft 215 kts 11°
2026-05-04 00:21 41.79280 -71.43253 2532 ft 223 kts 27°
2026-05-04 00:22 41.80430 -71.41988 3065 ft 211 kts 38°
2026-05-04 00:22 41.81461 -71.40606 3496 ft 204 kts 39°
2026-05-04 00:22 41.82549 -71.39418 3501 ft 203 kts 18°
2026-05-04 00:22 41.83931 -71.39329 3272 ft 202 kts 338°
2026-05-04 00:23 41.84948 -71.40534 3156 ft 200 kts 296°
2026-05-04 00:23 41.85005 -71.42363 3120 ft 207 kts 255°
2026-05-04 00:23 41.84079 -71.43899 2973 ft 223 kts 220°
2026-05-04 00:23 41.82563 -71.44579 2724 ft 242 kts 189°
2026-05-04 00:24 41.80887 -71.44102 2442 ft 255 kts 156°
2026-05-04 00:24 41.79865 -71.42295 2290 ft 253 kts 98°
2026-05-04 00:24 41.80433 -71.40324 2058 ft 222 kts 37°
2026-05-04 00:24 41.81755 -71.39739 1970 ft 191 kts 353°
2026-05-04 00:25 41.82977 -71.40318 1397 ft 193 kts 323°
2026-05-04 00:25 41.83788 -71.41691 1074 ft 186 kts 289°
2026-05-04 00:25 41.83811 -71.43321 1068 ft 177 kts 261°
2026-05-04 00:25 41.83338 -71.45224 1282 ft 237 kts 251°
2026-05-04 00:26 41.82725 -71.47272 2117 ft 237 kts 251°
2026-05-04 00:26 41.82115 -71.49276 3011 ft 226 kts 255°
2026-05-04 00:26 41.82066 -71.51325 3089 ft 223 kts 285°
2026-05-04 00:26 41.82859 -71.53089 3056 ft 229 kts 316°
2026-05-04 00:27 41.84343 -71.53910 2992 ft 240 kts 351°
2026-05-04 00:27 41.86000 -71.53464 3022 ft 251 kts 21°
2026-05-04 00:27 41.87268 -71.51825 3047 ft 261 kts 57°
2026-05-04 00:27 41.87556 -71.49471 2971 ft 259 kts 96°
2026-05-04 00:28 41.86791 -71.47348 2903 ft 254 kts 127°
2026-05-04 00:28 41.85725 -71.45463 2791 ft 251 kts 128°
2026-05-04 00:28 41.84686 -71.43697 2982 ft 232 kts 130°
2026-05-04 00:28 41.83675 -71.42055 2988 ft 224 kts 130°
2026-05-04 00:29 41.82754 -71.40446 2711 ft 213 kts 125°
2026-05-04 00:29 41.82034 -71.38758 2399 ft 206 kts 116°
2026-05-04 00:29 41.81368 -71.37104 2184 ft 194 kts 123°
2026-05-04 00:29 41.80515 -71.35789 1968 ft 185 kts 143°
2026-05-04 00:30 41.79509 -71.34788 1803 ft 174 kts 147°
2026-05-04 00:30 41.78581 -71.33866 1764 ft 159 kts 146°
2026-05-04 00:30 41.77726 -71.33002 1724 ft 150 kts 146°
2026-05-04 00:30 41.76850 -71.32391 1706 ft 136 kts 171°
2026-05-04 00:31 41.75926 -71.32337 1633 ft 135 kts 198°
2026-05-04 00:31 41.75025 -71.32720 1545 ft 137 kts 207°
2026-05-04 00:31 41.74176 -71.33204 1525 ft 128 kts 220°
2026-05-04 00:31 41.73555 -71.34020 1370 ft 128 kts 237°
2026-05-04 00:32 41.73009 -71.34979 1264 ft 130 kts 237°
2026-05-04 00:32 41.72459 -71.35967 1304 ft 133 kts 238°
2026-05-04 00:32 41.71912 -71.36958 1336 ft 133 kts 239°
2026-05-04 00:32 41.71372 -71.37959 1260 ft 127 kts 240°
2026-05-04 00:33 41.70885 -71.38868 1071 ft 116 kts 240°
2026-05-04 00:33 41.70822 -71.40736 542 ft 104 kts 302°
2026-05-04 00:33 41.71375 -71.41327 232 ft 102 kts 323°
2026-05-04 00:34 41.71893 -71.41876 68 ft 88 kts 320°
2026-05-04 00:34 41.72312 -71.42321 49 ft 66 kts 322°
2026-05-04 00:34 41.72638 -71.42665 47 ft 54 kts 322°
2026-05-04 00:34 41.72897 -71.42934 54 ft 34 kts 322°
2026-05-04 00:35 41.73056 -71.43096 58 ft 26 kts 322°
2026-05-04 00:35 41.73148 -71.43163 56 ft 15 kts
2026-05-04 00:35 41.73172 -71.43019 57 ft 19 kts 70°
2026-05-04 00:35 41.73200 -71.42958 57 ft 0 kts 80°